Location: Nairn
(57.5833°N, 3.8667°W)
Time: 03:57:31
(UTC+00:00)

Altair - Pass Details

Date: 05 December 2020
Orbit: 1501 x 1682 km, 47.2° (Epoch: 17 January)

Event Time Altitude Azimuth Distance (km) Brightness Sun altitude
Rises 21:48:15 0° 255° (WSW) 4,714 10.4 -47.0°
Reaches altitude 10° 21:51:29 10° 250° (WSW) 3,710 9.7 -47.3°
Enters shadow 21:53:36 18° 244° (WSW) 3,096 9.2 -47.5°
